Starlink 4390

operational
NORAD ID: 53653 Int'l Des: 2022-105 Owner: SPXS Country: US Constellation: starlink
LEOCIRCULARRETROGRADESSO

Starlink 4390について

説明を読み込み中...

リアルタイム位置

3D地球を読み込み中...

次回通過

高度履歴

Altitude vs Time

uPlot chart will show altitude changes over time

軌道要素

1 53653U 22105F 25259.62675035 .00000263 00000-0 25022-4 0 9995
2 53653 97.6050 139.7572 0001770 82.8881 277.2544 15.01259299167115
Epoch: Sep 16, 2025 • Age: 25 hours

現在のステータス

高度 588.9 km
速度 7.56 km/s
衛星直下点 -64.57°S, 65.82°E
打ち上げ日 Aug 31, 2022
運用期間 3 years
タイプ internet

技術仕様

分類 Payload
質量 300.00 kg
乾燥質量 290.00 kg
総質量 300.00 kg
長さ 0.20 m
直径 2.80 m
スパン 9.00 m
形状 Box + pan
製造者 SPXS
バスタイプ Starlink
フェーズステータス In Orbit
所有者/国 SPXS/US

大規模コンステレーション

Loading constellations...